CW0405 Weather Reports


Display with metric or nautical units.
time (UTC)temp
F
wind
direction
speed
MPH
gust
MPH
rain 1hr
in
rain 24hr
in
rain mn
in
humidity
%
barometer
mb
20260507075150 50 205 3.0 7.0 0.00 0.00 0.00 85 1005.3
20260507074649 50 201 2.0 8.0 0.00 0.00 0.00 85 1005.2
20260507074151 50 329 2.0 8.0 0.00 0.00 0.00 85 1005.1
20260507073649 51 232 1.0 7.0 0.00 0.00 0.00 85 1005.0
20260507073147 51 101 2.0 7.0 0.00 0.00 0.00 85 1004.9
20260507072646 51 233 2.0 8.0 0.00 0.00 0.00 85 1004.6
20260507072147 51 339 2.0 8.0 0.00 0.00 0.00 86 1004.7
20260507071645 51 233 1.0 8.0 0.00 0.00 0.00 87 1004.7
20260507070644 51 274 2.0 7.0 0.00 0.00 0.00 87 1005.0
20260507070141 51 310 2.0 7.0 0.00 0.00 0.00 87 1004.5
20260507065639 51 248 2.0 8.0 0.00 0.00 0.00 87 1004.6
20260507065136 51 260 2.0 8.0 0.00 0.00 0.00 88 1004.6
20260507064637 51 267 2.0 7.0 0.00 0.00 0.00 88 1004.5
20260507064137 52 285 2.0 11.0 0.00 0.00 0.00 88 1004.6
20260507063635 52 250 1.0 11.0 0.00 0.00 0.00 88 1004.4
20260507063133 52 273 0.0 4.0 0.00 0.00 0.00 89 1004.3
20260507062627 52 271 1.0 5.0 0.00 0.00 0.00 89 1004.2
20260507062121 52 212 1.0 5.0 0.00 0.00 0.00 90 1004.5
20260507061624 52 243 0.0 5.0 0.00 0.00 0.00 90 1004.4
20260507061118 52 302 0.0 3.0 0.00 0.00 0.00 90 1004.4
20260507060117 53 281 1.0 7.0 0.00 0.00 0.00 90 1004.5
20260507055619 53 280 1.0 7.0 0.00 0.00 0.00 90 1004.6
20260507055119 53 282 1.0 6.0 0.00 0.00 0.00 91 1004.6
20260507054619 53 313 1.0 5.0 0.00 0.00 0.00 91 1004.7
20260507053621 53 293 1.0 5.0 0.00 0.00 0.00 90 1004.5
20260507053119 53 249 2.0 8.0 0.00 0.00 0.00 90 1004.7
20260507052615 53 212 1.0 8.0 0.00 0.00 0.00 90 1005.0
20260507051120 53 246 1.0 7.0 0.00 0.00 0.00 91 1004.7
20260507050615 54 308 1.0 7.0 0.00 0.00 0.00 91 1004.8
20260507045609 54 312 0.0 4.0 0.00 0.00 0.00 92 1004.7
20260507044557 54 307 1.0 5.0 0.00 0.00 0.00 91 1004.4
20260507044052 54 234 2.0 8.0 0.00 0.00 0.00 91 1004.5
20260507043547 55 273 2.0 9.0 0.00 0.00 0.00 91 1004.4
20260507043039 55 230 2.0 9.0 0.00 0.00 0.00 90 1004.5
20260507042534 55 230 2.0 8.0 0.00 0.00 0.00 90 1004.7
20260507042028 56 232 2.0 8.0 0.00 0.00 0.00 90 1004.7
20260507041520 56 265 2.0 6.0 0.00 0.00 0.00 91 1004.7
20260507041014 57 237 2.0 8.0 0.00 0.00 0.00 91 1004.6
20260507040509 57 208 1.0 8.0 0.00 0.00 0.00 92 1004.5
20260507040003 58 276 2.0 9.0 0.00 0.00 0.00 92 1004.3
20260507035457 58 332 3.0 9.0 0.00 0.00 0.00 92 1004.3
20260507034950 59 293 2.0 9.0 0.00 0.00 0.00 93 1004.2
20260507033937 59 311 1.0 5.0 0.00 0.00 0.00 94 1004.0
20260507033435 60 189 2.0 9.0 0.00 0.00 0.00 94 1003.9
20260507032927 60 212 2.0 9.0 0.00 0.00 0.00 94 1003.7
20260507032420 60 214 1.0 4.0 0.00 0.00 0.00 94 1003.6
20260507031914 60 252 2.0 10.0 0.00 0.00 0.00 94 1003.5
20260507031408 60 251 3.0 10.0 0.00 0.00 0.00 94 1003.4
20260507030901 60 180 2.0 6.0 0.00 0.00 0.00 93 1003.5
20260507030356 60 217 2.0 8.0 0.00 0.00 0.00 93 1003.3
20260507025343 60 205 3.0 8.0 0.00 0.00 0.00 93 1003.4
20260507024838 60 212 3.0 8.0 0.00 0.00 0.00 93 1003.4
20260507024333 60 248 3.0 10.0 0.00 0.00 0.00 93 1003.4
20260507023826 60 160 2.0 10.0 0.00 0.00 0.00 93 1003.5
20260507023320 60 188 2.0 7.0 0.00 0.00 0.00 93 1003.4
20260507022813 60 232 2.0 10.0 0.00 0.00 0.00 93 1003.4
20260507022308 60 214 3.0 10.0 0.00 0.00 0.00 93 1003.4
20260507021802 60 240 3.0 9.0 0.00 0.00 0.00 93 1003.3
20260507021257 60 162 3.0 9.0 0.00 0.00 0.00 93 1003.4
20260507020751 60 216 2.0 6.0 0.00 0.00 0.00 93 1003.4
20260507020245 60 212 2.0 6.0 0.00 0.00 0.00 93 1003.4
20260507015231 60 146 2.0 8.0 0.00 0.00 0.00 94 1003.6
20260507014726 60 212 2.0 6.0 0.00 0.00 0.00 94 1003.6
20260507014220 60 200 2.0 5.0 0.00 0.00 0.00 94 1003.6
20260507013714 60 169 3.0 10.0 0.00 0.00 0.00 94 1003.6
20260507013210 60 212 2.0 10.0 0.00 0.00 0.00 94 1003.7
20260507012704 60 157 2.0 10.0 0.00 0.00 0.00 94 1003.6
20260507011651 60 218 2.0 6.0 0.00 0.00 0.00 94 1003.7
20260507011147 60 168 2.0 6.0 0.00 0.00 0.00 94 1003.7
20260507010639 60 194 2.0 8.0 0.00 0.00 0.00 94 1003.8
20260507010132 60 205 3.0 8.0 0.00 0.00 0.00 94 1003.8
20260507005626 60 184 3.0 8.0 0.00 0.00 0.00 94 1003.8
20260507005120 60 193 2.0 8.0 0.00 0.00 0.00 94 1003.6
20260507004617 60 162 2.0 7.0 0.00 0.00 0.00 94 1003.7
20260507004107 60 155 1.0 4.0 0.00 0.00 0.00 94 1003.7
20260507003604 60 160 1.0 3.0 0.00 0.00 0.00 94 1003.8
20260507002550 60 151 2.0 7.0 0.00 0.00 0.00 94 1003.7
20260507002045 60 163 1.0 5.0 0.00 0.00 0.00 94 1003.7
20260507000538 60 210 2.0 4.0 0.00 0.00 0.00 94 1003.5
20260506235516 60 167 1.0 3.0 0.00 0.00 0.00 94 1003.4
20260506234019 60 157 1.0 4.0 0.00 0.00 0.00 94 1003.5
20260506233014 60 172 1.0 6.0 0.00 0.00 0.00 94 1003.5
20260506232527 60 198 1.0 6.0 0.00 0.00 0.00 94 1003.5
20260506231514 60 129 1.0 5.0 0.00 0.00 0.00 93 1003.8
20260506231015 60 322 1.0 4.0 0.00 0.00 0.00 93 1003.8
20260506230515 60 150 2.0 5.0 0.00 0.00 0.00 93 1003.8
20260506225513 60 163 2.0 6.0 0.00 0.00 0.00 93 1003.8
20260506225013 60 171 2.0 6.0 0.00 0.00 0.00 93 1003.8
20260506224017 60 181 2.0 4.0 0.00 0.00 0.00 93 1003.8
20260506223512 60 150 2.0 5.0 0.00 0.00 0.00 93 1004.0
20260506223012 60 164 1.0 8.0 0.00 0.00 0.00 93 1004.0
20260506222511 60 226 1.0 8.0 0.00 0.00 0.00 93 1004.0
20260506222012 60 179 0.0 3.0 0.00 0.00 0.00 93 1004.0
20260506221010 60 148 2.0 6.0 0.00 0.00 0.00 93 1004.1
20260506220511 60 195 2.0 6.0 0.00 0.00 0.00 92 1004.1
20260506220013 60 158 1.0 4.0 0.00 0.00 0.00 93 1004.2
20260506215511 61 141 1.0 4.0 0.00 0.00 0.00 92 1004.2
20260506215009 61 141 1.0 4.0 0.00 0.00 0.00 92 1004.3
20260506214508 61 212 1.0 5.0 0.00 0.00 0.00 92 1004.4
20260506214013 61 155 2.0 5.0 0.00 0.00 0.00 92 1004.3
20260506213511 61 141 2.0 5.0 0.00 0.00 0.00 92 1004.4
20260506213010 61 151 2.0 6.0 0.00 0.00 0.00 92 1004.5
20260506212510 61 149 2.0 6.0 0.00 0.00 0.00 92 1004.6
20260506212007 61 197 2.0 6.0 0.00 0.00 0.00 91 1004.6
20260506211505 61 142 3.0 6.0 0.00 0.00 0.00 91 1004.7
20260506210502 62 162 3.0 5.0 0.00 0.00 0.00 91 1004.7
20260506210004 62 163 2.0 7.0 0.00 0.00 0.00 91 1004.9
20260506204503 62 155 0.0 1.0 0.00 0.00 0.00 90 1004.8
20260506203459 63 147 0.0 3.0 0.00 0.00 0.00 89 1004.7
20260506202959 63 136 0.0 2.0 0.00 0.00 0.00 88 1004.8
20260506202458 63 146 0.0 2.0 0.00 0.00 0.00 88 1004.7
20260506201957 64 166 0.0 1.0 0.00 0.00 0.00 87 1004.8
20260506201457 64 145 0.0 1.0 0.00 0.00 0.00 86 1004.7
20260506200458 65 147 0.0 0.0 0.00 0.00 0.00 84 1004.6
20260506195455 65 146 1.0 7.0 0.00 0.00 0.00 81 1004.7
20260506194953 65 202 2.0 7.0 0.00 0.00 0.00 80 1004.6
20260506194450 66 160 2.0 5.0 0.00 0.00 0.00 79 1004.7
20260506193951 66 146 3.0 7.0 0.00 0.00 0.00 77 1004.7
20260506193450 67 142 2.0 7.0 0.00 0.00 0.00 75 1004.8
20260506192952 67 184 2.0 8.0 0.00 0.00 0.00 74 1004.9
20260506192451 67 151 3.0 9.0 0.00 0.00 0.00 72 1004.9
20260506191952 68 199 4.0 9.0 0.00 0.00 0.00 71 1004.8
20260506191452 68 217 4.0 12.0 0.00 0.00 0.00 70 1004.7
20260506190952 69 158 4.0 12.0 0.00 0.00 0.00 68 1004.7
20260506185953 69 174 1.0 7.0 0.00 0.00 0.00 67 1004.8
20260506185452 70 139 1.0 7.0 0.00 0.00 0.00 67 1004.8
20260506184950 70 153 1.0 6.0 0.00 0.00 0.00 67 1004.7
20260506184451 70 180 2.0 4.0 0.00 0.00 0.00 64 1004.6
20260506183952 71 141 3.0 6.0 0.00 0.00 0.00 63 1004.6
20260506182948 71 159 2.0 6.0 0.00 0.00 0.00 60 1004.6
20260506182448 72 153 3.0 11.0 0.00 0.00 0.00 60 1004.6
20260506181951 72 154 5.0 12.0 0.00 0.00 0.00 59 1004.7
20260506181450 72 141 3.0 12.0 0.00 0.00 0.00 59 1004.8
20260506180949 72 160 2.0 5.0 0.00 0.00 0.00 60 1005.0
20260506180448 72 145 2.0 6.0 0.00 0.00 0.00 60 1004.8
20260506175446 72 142 2.0 4.0 0.00 0.00 0.00 59 1005.1
20260506174948 73 105 2.0 6.0 0.00 0.00 0.00 59 1005.0
20260506174446 73 158 2.0 6.0 0.00 0.00 0.00 59 1005.0
20260506173948 73 134 2.0 6.0 0.00 0.00 0.00 58 1005.0
20260506172947 74 154 2.0 8.0 0.00 0.00 0.00 58 1005.1
20260506171942 73 119 1.0 5.0 0.00 0.00 0.00 59 1005.2
20260506171444 72 165 1.0 4.0 0.00 0.00 0.00 60 1005.2
20260506170943 72 84 0.0 6.0 0.00 0.00 0.00 62 1005.2
20260506170444 72 121 0.0 6.0 0.00 0.00 0.00 61 1005.3
20260506165943 72 122 0.0 4.0 0.00 0.00 0.00 62 1005.4
20260506165443 72 127 1.0 4.0 0.00 0.00 0.00 60 1005.4
20260506164944 73 142 2.0 9.0 0.00 0.00 0.00 59 1005.6
20260506163944 73 147 3.0 9.0 0.00 0.00 0.00 57 1005.6
20260506162938 73 224 2.0 10.0 0.00 0.00 0.00 59 1005.7
20260506162440 73 202 2.0 10.0 0.00 0.00 0.00 58 1005.7
20260506161941 72 212 2.0 7.0 0.00 0.00 0.00 59 1006.0
20260506161440 72 165 3.0 11.0 0.00 0.00 0.00 59 1006.0
20260506160942 72 146 2.0 11.0 0.00 0.00 0.00 59 1006.2
20260506155945 71 167 3.0 9.0 0.00 0.00 0.00 60 1006.4
20260506155443 71 151 3.0 9.0 0.00 0.00 0.00 60 1006.5
20260506154937 71 153 3.0 9.0 0.00 0.00 0.00 60 1006.6
20260506154437 71 169 4.0 13.0 0.00 0.00 0.00 61 1006.9
20260506153937 71 165 5.0 13.0 0.00 0.00 0.00 61 1007.0
20260506153435 71 156 5.0 12.0 0.00 0.00 0.00 61 1007.0
20260506152437 71 136 5.0 13.0 0.00 0.00 0.00 60 1007.2
20260506151936 72 146 4.0 13.0 0.00 0.00 0.00 60 1007.1
20260506151436 72 206 3.0 9.0 0.00 0.00 0.00 61 1007.1
20260506150936 71 124 5.0 11.0 0.00 0.00 0.00 62 1007.1
20260506150435 71 188 5.0 15.0 0.00 0.00 0.00 62 1007.3
20260506145435 70 226 4.0 15.0 0.00 0.00 0.00 63 1007.3
20260506144935 70 266 5.0 15.0 0.00 0.00 0.00 64 1007.2
20260506144437 70 91 5.0 13.0 0.00 0.00 0.00 63 1007.0
20260506143935 70 149 5.0 13.0 0.00 0.00 0.00 64 1007.1
20260506142936 70 206 3.0 7.0 0.00 0.00 0.00 65 1007.0
20260506142436 70 129 4.0 9.0 0.00 0.00 0.00 65 1006.8
20260506141434 69 223 3.0 14.0 0.00 0.00 0.00 66 1007.0
20260506140935 69 172 3.0 14.0 0.00 0.00 0.00 68 1007.1
20260506140437 68 144 3.0 6.0 0.00 0.00 0.00 68 1007.1
20260506135936 68 134 3.0 7.0 0.00 0.00 0.00 69 1007.1
20260506135435 68 213 3.0 7.0 0.00 0.00 0.00 69 1007.1
20260506134937 68 183 3.0 8.0 0.00 0.00 0.00 69 1007.3
20260506134436 68 130 3.0 8.0 0.00 0.00 0.00 69 1007.4
20260506133935 68 132 2.0 5.0 0.00 0.00 0.00 70 1007.6
20260506133435 67 237 2.0 8.0 0.00 0.00 0.00 70 1007.6
20260506132935 67 169 3.0 9.0 0.00 0.00 0.00 71 1007.7
20260506132437 67 223 3.0 9.0 0.00 0.00 0.00 71 1007.6
20260506131933 67 158 3.0 10.0 0.00 0.00 0.00 71 1007.6
20260506131446 66 158 3.0 12.0 0.00 0.00 0.00 72 1007.5
20260506130935 66 214 4.0 12.0 0.00 0.00 0.00 72 1007.5
20260506125932 66 134 5.0 12.0 0.00 0.00 0.00 71 1007.5
20260506125430 67 178 4.0 9.0 0.00 0.00 0.00 71 1007.6
20260506124930 66 174 3.0 9.0 0.00 0.00 0.00 72 1007.4
20260506124430 66 150 3.0 11.0 0.00 0.00 0.00 74 1007.5
20260506123926 65 207 4.0 11.0 0.00 0.00 0.00 74 1007.6
20260506123428 65 186 4.0 10.0 0.00 0.00 0.00 74 1007.8
20260506122926 65 193 4.0 11.0 0.00 0.00 0.00 74 1007.9
20260506122427 65 202 2.0 11.0 0.00 0.00 0.00 74 1007.7
20260506121926 65 213 1.0 5.0 0.00 0.00 0.00 75 1007.6
20260506121425 64 204 2.0 7.0 0.00 0.00 0.00 75 1007.6
20260506120922 64 196 3.0 13.0 0.00 0.00 0.00 76 1007.7
20260506120436 64 166 3.0 13.0 0.00 0.00 0.00 76 1007.9
20260506115921 64 137 2.0 5.0 0.00 0.00 0.00 76 1007.8
20260506115423 64 179 3.0 8.0 0.00 0.00 0.00 76 1007.9
20260506114920 64 195 2.0 8.0 0.00 0.00 0.00 76 1007.9
20260506114422 64 144 3.0 8.0 0.00 0.00 0.00 76 1008.0
20260506113921 63 141 3.0 8.0 0.00 0.00 0.00 76 1008.1
20260506112917 63 219 3.0 8.0 0.00 0.00 0.00 77 1008.0
20260506112414 63 162 3.0 8.0 0.00 0.00 0.00 77 1007.9
20260506111913 63 191 3.0 8.0 0.00 0.00 0.00 77 1007.9
20260506111412 63 200 3.0 8.0 0.00 0.00 0.00 78 1007.9
20260506110408 62 166 3.0 12.0 0.00 0.00 0.00 78 1008.1
20260506105909 62 211 3.0 12.0 0.00 0.00 0.00 78 1008.1
20260506105409 62 150 3.0 7.0 0.00 0.00 0.00 77 1008.1
20260506104910 62 146 2.0 6.0 0.00 0.00 0.00 77 1008.0
20260506104406 62 158 2.0 7.0 0.00 0.00 0.00 77 1008.0
20260506103907 62 204 2.0 7.0 0.00 0.00 0.00 77 1008.0
20260506103405 62 187 2.0 7.0 0.00 0.00 0.00 77 1008.0
20260506102905 62 180 2.0 9.0 0.00 0.00 0.00 77 1008.0
20260506101909 62 144 1.0 5.0 0.00 0.00 0.00 77 1008.0
20260506101409 62 157 2.0 6.0 0.00 0.00 0.00 76 1008.0
20260506100403 62 165 2.0 6.0 0.00 0.00 0.00 76 1007.9
20260506095903 62 205 1.0 6.0 0.00 0.00 0.00 77 1007.9
20260506095402 62 199 1.0 4.0 0.00 0.00 0.00 77 1007.8
20260506094858 62 150 1.0 7.0 0.00 0.00 0.00 77 1007.9
20260506094350 62 155 2.0 7.0 0.00 0.00 0.00 76 1008.0
20260506093844 62 182 2.0 6.0 0.00 0.00 0.00 76 1008.0
20260506093338 62 214 2.0 8.0 0.00 0.00 0.00 76 1008.0
20260506091822 62 217 2.0 9.0 0.00 0.00 0.00 75 1007.9
20260506091315 62 189 1.0 9.0 0.00 0.00 0.00 75 1007.9
20260506090302 62 171 3.0 11.0 0.00 0.00 0.00 74 1008.0
20260506085758 63 205 3.0 11.0 0.00 0.00 0.00 74 1007.9
20260506085252 63 141 2.0 10.0 0.00 0.00 0.00 74 1007.9
20260506084744 63 164 3.0 10.0 0.00 0.00 0.00 74 1008.0
20260506084236 63 181 3.0 7.0 0.00 0.00 0.00 73 1007.8
20260506083736 63 168 2.0 5.0 0.00 0.00 0.00 73 1007.9
20260506083237 63 202 2.0 7.0 0.00 0.00 0.00 73 1008.0
20260506082736 63 165 3.0 8.0 0.00 0.00 0.00 72 1007.9
20260506082235 63 141 3.0 8.0 0.00 0.00 0.00 72 1007.8
20260506081735 63 152 3.0 8.0 0.00 0.00 0.00 72 1007.8
20260506081235 64 200 3.0 9.0 0.00 0.00 0.00 71 1007.7
20260506080733 64 168 4.0 9.0 0.00 0.00 0.00 71 1007.7